Regional Weather Roundup
Issued by NWS State College, PA

Home | Current Version | Previous Version | Text Only | Print | Product List | Glossary On
Versions: 1 2 3 4 5 6 7 8 9 10 11 12 13 14 15 16 17 18 19 20 21 22 23 24 25 26 27 28 29 30 31 32 33 34 35 36 37 38 39 40 41 42 43 44 45 46 47 48 49 50
000
ASUS41 KCTP 250410
RWRCTP

REGIONAL WEATHER ROUNDUP
NATIONAL WEATHER SERVICE STATE COLLEGE PA
1200 AM EDT MON JUL 25 2016

Note: "fair" indicates few or no clouds below 12,000 feet with no
significant weather and/or obstructions to visibility.

* = STATION THAT DOES NOT REPORT PRECIPITATION /E.G. RAIN...SNOW...ETC/
    THUNDER OR FOG.

PAZ002>004-007>009-013>016-020>023-029>032-250500-
WESTERN PENNSYLVANIA

CITY           SKY/WX    TMP DP  RH WIND       PRES   REMARKS
ERIE           PTCLDY    76  71  85 S10       29.94F
MEADVILLE      CLOUDY    71  70  96 CALM      30.01F FOG
FRANKLIN*      CLOUDY    70  66  88 S6        30.05S VSB 1/4
NEW CASTLE     FAIR      72  71  97 CALM      30.02S
BEAVER COUNTY  NOT AVBL
BUTLER*        PTCLDY    72  70  94 CALM      30.05S
PITTSBURGH INT MOCLDY    73  71  93 S3        30.02S
PITTSBURGH     PTCLDY    72  69  90 S6        30.02F FOG
INDIANA*       MOCLDY    70  70 100 CALM      30.07F
LATROBE        CLEAR     70  70 100 CALM      30.04F FOG
WASHINGTON CO* PTCLDY    70  66  88 CALM      30.03F
$$

PAZ004>006-010>012-017>019-024>028-033>037-041-042-045-046-049>053-250500-
CENTRAL PENNSYLVANIA

CITY           SKY/WX    TMP DP  RH WIND       PRES   REMARKS
BRADFORD       CLEAR     67  64  90 CALM      30.05S
DUBOIS         CLOUDY    70  68  93 CALM      30.05S FOG
CLEARFIELD     PTCLDY    71  68  90 SW5       30.05S
JOHNSTOWN      CLEAR     71  65  81 SW7       30.09S
ALTOONA        PTCLDY    71  68  90 W3        30.06S FOG
STATE COLLEGE  MOCLDY    71  70  97 SW5       30.02S
WILLIAMSPORT   CLOUDY    77  68  73 W6        29.96S
SELINSGROVE    PTCLDY    74  74 100 CALM      29.97F
FT INDIANTOWN  CLOUDY    75  73  91 VRB1      29.98F
CAPITAL CITY   CLOUDY    77  71  82 S3        29.97F
HARRISBURG     CLOUDY    78  75  90 SE3       29.97F
YORK           CLOUDY    77  72  84 CALM      29.99F
$$

PAZ038>040-043-044-047-048-054-055-060>062-067>071-250500-
EASTERN PENNSYLVANIA

CITY           SKY/WX    TMP DP  RH WIND       PRES   REMARKS
SCRANTON       PTCLDY    81  65  58 SW8       29.99S
MOUNT POCONO   PTCLDY    75  63  66 W6        30.05F
ALLENTOWN      CLOUDY    83  65  54 SW7       29.98S
QUAKERTOWN*    CLOUDY    81  68  65 CALM      30.00S
READING        PTCLDY    79  68  69 CALM      29.97F
LANCASTER      LGT RAIN  78  71  79 CALM      29.98F
COATESVILLE    MOCLDY    79  70  73 CALM      30.02F
POTTSTOWN      MOCLDY    79  70  74 CALM      30.01R
BLUE BELL      CLOUDY    79  63  57 S3        29.99R
DOYLESTOWN     CLOUDY    79  64  60 SW5       29.98F
WILLOW GROVE   NOT AVBL
NORTH PHILA    MOCLDY    83  64  52 SW5       29.99F
PHILADELPHIA   CLOUDY    82  63  52 SW6       29.98F
$$



USA.gov is the U.S. government's official web portal to all federal, state and local government web resources and services.